Regional Weather Roundup
Issued by NWS Portland, ME

Home | Current Version | Previous Version | Text Only | Print | Product List | Glossary On
Versions: 1 2 3 4 5 6 7 8 9 10 11 12 13 14 15 16 17 18 19 20 21 22 23 24 25 26 27 28 29 30 31 32 33 34 35 36 37 38 39 40 41 42 43 44 45 46 47 48 49 50
000
ASUS41 KGYX 221910
RWRGYX
WEATHER ROUNDUP FOR MAINE AND NEW HAMPSHIRE
NATIONAL WEATHER SERVICE GRAY ME
300 PM EDT THU JUN 22 2017

MEZ002-005-006-010-012-015-018-020-021-024-026-027-029-222000-
MAINE

CITY           SKY/WX    TMP DP  RH WIND       PRES   REMARKS
PORTLAND       MOSUNNY   82  50  32 NW7G18    29.86F
SANFORD        SUNNY     80  53  39 VRB6      29.89F
BAR HARBOR     CLOUDY    72  54  53 S15G22    29.84
WISCASSET      MOSUNNY   80  52  37 SW8       29.87F
ROCKLAND       MOSUNNY   75  53  46 SW13      29.86F
FRYEBURG       MOSUNNY   78  48  34 NW3       29.88F
LEWISTONAUBURN   N/A     79  50  36 VRB3      29.86F
AUGUSTA        SUNNY     79  46  31 NW14G24   29.86F
WATERVILLE     MOSUNNY   78  50  37 W9G20     29.83F
BANGOR         PTSUNNY   76  48  37 NW9       29.83F
GREENVILLE       N/A     70  48  45 VRB7G17   29.84S
MILLINOCKET    LGT RAIN  73  44  35 NW16G25   29.82S
HOULTON        SUNNY     75  42  30 W14G28    29.75F
PRESQUE ISLE   MOSUNNY   73  46  38 W14G21    29.77F
FRENCHVILLE    SUNNY     67  43  41 W13G25    29.77S
CARIBOU        SUNNY     74  46  36 W13G20    29.76S
$$

NHZ002-005-008-009-011-012-014-222000-
NEW HAMPSHIRE

CITY           SKY/WX    TMP DP  RH WIND       PRES   REMARKS
PORTSMOUTH     PTSUNNY   82  52  35 W8        29.87F
ROCHESTER      MOSUNNY   81  50  33 VRB5      29.88F
NASHUA         CLOUDY    81  52  36 W8        29.90F
MANCHESTER     PTSUNNY   82  48  30 W12       29.88F
CONCORD        MOSUNNY   82  52  35 W10       29.89F
LACONIA        SUNNY    N/A N/A N/A W9        29.89F
PLYMOUTH       PTSUNNY   76  50  40 NW6       29.89S
BERLIN         MOSUNNY   77  46  33 NW7       29.90F
WHITEFIELD     MOSUNNY   76  49  38 W10G18    29.91S
JAFFREY        MOSUNNY   77  50  38 W9        29.94F
KEENE          MOSUNNY   78  50  37 VRB6      29.93S
LEBANON        SUNNY     79  50  36 W10       29.90F
MT WASHINGTON  PTSUNNY   46  39  76 W37G43      N/A
$$

VTZ005-007-008-222000-
VERMONT

CITY           SKY/WX    TMP DP  RH WIND       PRES   REMARKS
ST JOHNSBURY     N/A     76  49  38 MISG      29.88F
MONTPELIER     CLOUDY    72  52  49 W8        29.96S
BURLINGTON     CLOUDY    79  51  37 SW5       29.89F
$$

MAZ007-012-024-CTZ003-RIZ002-NYZ038-NYZ072-222000-
SOUTHERN NEW ENGLAND AND NY

CITY           SKY/WX    TMP DP  RH WIND       PRES   REMARKS
BOSTON         PTSUNNY   82  52  35 VRB6      29.89F
WORCESTER      SUNNY     77  48  35 W9        29.94F
NANTUCKET      MOSUNNY   70  56  61 SW10      29.96F
PROVIDENCE     MOSUNNY   82  51  34 VRB6      29.91F
HARTFORD       PTSUNNY   83  52  34 W9        29.93F
ALBANY         PTSUNNY   79  55  43 S6        29.93F
NEW YORK CITY  MOSUNNY   81  57  43 S12       29.95F
$$

ANZ081-ANZ082-ANZ150-NHZ014-MEZ023>029-222000-
COASTAL MARINE OBSERVATIONS

STATION/POSITION TIME  TEMP    WIND        PRES    WAVE
                       AIR SEA DIR/SP/G            HT/PER
                 (UTC) (F)     (DEG/KT/KT) (MB)    (FT/S)
MATINICUS ROCK   1800   62     230/ 20/ 20 1011.7F
ISLE OF SHOALS   1800   68     170/ 17/ 17 1012.5F
JEFFREYS LEDGE   1806      60                N/A     2/ 6
CASHES LEDGE BUO 1750   64 60              1013.3    2/ 7
GEORGES BANK BUO 1750   57 56              1014.0    3/ 6
$$

.............KEY..............
   WCI - WIND CHILL
   TC  - TEMPERATURE IN CELSIUS
   VSB - VISIBILITY IN MILES
   HX  - HEAT INDEX
   FAIR- INDICATES FEW OR NO CLOUDS BELOW 12,000 FT, WITH NO
         SIGNIFICANT WEATHER AND/OR OBSTRUCTIONS TO VISIBILITY.






USA.gov is the U.S. government's official web portal to all federal, state and local government web resources and services.